User: anonymous   Login
Location: Maiden
(35.5760°N, 81.2120°W)
Time: 09:45:05
(UTC-04:00)
Language:

Cosmos 2151 - Orbit

View from above orbital plane
View from above orbital plane
View from above satellite
View from above satellite

Ground track
Ground track

The orbit data is extracted from the following two-line orbital elements,

1 21422U 91042A   17146.46742330 +.00000198 +00000-0 +17045-4 0  9994
2 21422 082.5009 267.1090 0014496 013.5615 346.5991 14.91819269384188
Epoch (UTC): 26 May 2017 11:13:05
Eccentricity: 0.0014496
inclination: 82.5009°
perigee height: 582 km
apogee height: 602 km
right ascension of ascending node: 267.1090°
argument of perigee: 13.5615°
revolutions per day: 14.91819269
mean anomaly at epoch: 346.5991°
orbit number at epoch: 38418

The dashed part of the orbit path shows where the satellite is in the earth's shadow,  

DLR